Weather History for Mora, MN

Change the Weather History Date:

Monday, April 16, 2012

  Actual Average Record
Temperature  
Mean Temperature 36 °F -  
Max Temperature 41 °F 59 °F 84 °F (2002)
Min Temperature 30 °F 31 °F 16 °F (1983)
Degree Days  
Heating Degree Days 30    
Moisture  
Dew Point 28 °F    
Average Humidity 80    
Maximum Humidity 93    
Minimum Humidity 65    
Precipitation  
Precipitation 0.04 in - - ()
Sea Level Pressure  
Sea Level Pressure 29.80 in    
Wind  
Wind Speed 12 mph (NNW)    
Max Wind Speed 23 mph    
Max Gust Speed 36 mph    
Visibility 9 miles    
Events Rain , Snow    
Averages and records for this station are not official NWS values.
T = Trace of Precipitation, MM = Missing Value Source: NWS Daily Summary

Daily Weather History Graph

Daily Weather History Graph

Search for Another Location

Airport:

Trip Planner

Search our weather history database for the weather conditions in past years. The results will help you decide how hot, cold, wet, or windy it might be!

Date:

Astronomy

Apr. 16, 2012 Rise Set
Actual Time 6:24 AM CDT 8:01 PM CDT
Civil Twilight 5:53 AM CDT 8:33 PM CDT
Nautical Twilight 5:14 AM CDT 9:11 PM CDT
Astronomical Twilight 4:33 AM CDT 9:53 PM CDT
Moon 4:06 AM CDT (4/16) 3:45 PM CDT (4/16)
Length of Visible Light 14h 40m
Length of Day
13h 37m
Waning Crescent, 19% of the Moon is Illuminated
Apr 16
Waning Crescent
Apr 21
New
Apr 29
First Quarter
May 5
Full
May 12
Last Quarter

Hourly Weather History & Observations

Time (CDT) Temp. Windchill Dew Point Humidity Pressure Visibility Wind Dir Wind Speed Gust Speed Precip Events Conditions
12:16 AM 41.0 °F 33.5 °F 37.4 °F 87% 29.30 in 10.0 mi ENE 13.8 mph 21.9 mph N/A   Overcast
12:36 AM 41.0 °F 34.7 °F 35.6 °F 81% 29.31 in 10.0 mi NE 10.4 mph 20.7 mph N/A   Overcast
12:56 AM 41.0 °F 37.1 °F 35.6 °F 81% 29.31 in 10.0 mi North 5.8 mph - N/A   Overcast
1:16 AM 41.0 °F 35.2 °F 35.6 °F 81% 29.32 in 10.0 mi North 9.2 mph - N/A   Overcast
1:36 AM 39.2 °F 34.2 °F 35.6 °F 87% 29.32 in 10.0 mi NNE 6.9 mph - N/A   Overcast
1:56 AM 39.2 °F 32.5 °F 35.6 °F 87% 29.33 in 10.0 mi NNE 10.4 mph 21.9 mph N/A Rain Heavy Rain
2:36 AM 37.4 °F 30.3 °F 33.8 °F 87% 29.35 in 5.0 mi NNE 10.4 mph 27.6 mph 0.03 in   Drizzle
2:56 AM 35.6 °F 27.5 °F 33.8 °F 93% 29.35 in 7.0 mi North 11.5 mph 21.9 mph N/A   Drizzle
3:16 AM 35.6 °F 27.5 °F 32.0 °F 87% 29.36 in 7.0 mi North 11.5 mph 23.0 mph N/A   Drizzle
3:36 AM 35.6 °F 26.6 °F 32.0 °F 87% 29.37 in 5.0 mi North 13.8 mph 24.2 mph N/A   Light Drizzle
3:56 AM 33.8 °F 25.3 °F 32.0 °F 93% 29.38 in 7.0 mi North 11.5 mph 23.0 mph N/A Rain Rain
4:16 AM 33.8 °F 24.3 °F 32.0 °F 93% 29.40 in 7.0 mi North 13.8 mph 21.9 mph N/A Rain Rain
4:36 AM 33.8 °F 25.3 °F 32.0 °F 93% 29.41 in 7.0 mi North 11.5 mph 21.9 mph N/A Snow Light Snow
4:56 AM 33.8 °F 23.9 °F 32.0 °F 93% 29.43 in 10.0 mi North 15.0 mph 24.2 mph N/A Snow Light Snow
5:16 AM 33.8 °F 24.3 °F 32.0 °F 93% 29.44 in 5.0 mi North 13.8 mph 23.0 mph N/A Snow Light Snow
5:36 AM 33.8 °F 24.8 °F 32.0 °F 93% 29.45 in 7.0 mi North 12.7 mph 27.6 mph 0.01 in Snow Light Snow
5:56 AM 33.8 °F 23.9 °F 30.2 °F 87% 29.48 in 5.0 mi North 15.0 mph 25.3 mph N/A Snow Light Snow
6:16 AM 33.8 °F 24.3 °F 30.2 °F 87% 29.50 in 5.0 mi North 13.8 mph 27.6 mph N/A Snow Light Snow
6:36 AM 33.8 °F 25.3 °F 30.2 °F 87% 29.52 in 3.0 mi North 11.5 mph 29.9 mph N/A Snow Light Snow
6:56 AM 32.0 °F 20.8 °F 30.2 °F 93% 29.54 in 5.0 mi NNW 17.3 mph 25.3 mph N/A Snow Light Snow
7:16 AM 32.0 °F 21.2 °F 28.4 °F 87% 29.57 in 10.0 mi NNW 16.1 mph 29.9 mph N/A   Overcast
7:36 AM 32.0 °F 21.6 °F 26.6 °F 80% 29.60 in 10.0 mi North 15.0 mph 33.4 mph N/A   Overcast
8:16 AM 32.0 °F 21.2 °F 26.6 °F 80% 29.65 in 5.0 mi NNW 16.1 mph 29.9 mph N/A Snow Light Snow
8:56 AM 32.0 °F 20.5 °F 26.6 °F 80% 29.69 in 10.0 mi NNW 18.4 mph 28.8 mph N/A   Overcast
9:15 AM 32.0 °F 19.5 °F 24.8 °F 75% 29.70 in 10.0 mi NNW 21.9 mph 35.7 mph N/A   Overcast
9:36 AM 32.0 °F 21.2 °F 23.0 °F 69% 29.72 in 10.0 mi North 16.1 mph 27.6 mph N/A   Overcast
9:56 AM 32.0 °F 22.1 °F 23.0 °F 69% 29.75 in 10.0 mi North 13.8 mph 29.9 mph N/A   Overcast
10:16 AM 32.0 °F 19.8 °F 24.8 °F 75% 29.76 in 10.0 mi NNW 20.7 mph 27.6 mph N/A   Overcast
10:36 AM 32.0 °F 19.2 °F 26.6 °F 80% 29.78 in 10.0 mi NNW 23.0 mph 29.9 mph N/A   Overcast
10:56 AM 32.0 °F 20.5 °F 24.8 °F 75% 29.79 in 10.0 mi NNW 18.4 mph 26.5 mph N/A   Overcast
11:16 AM 33.8 °F 23.2 °F 26.6 °F 75% 29.81 in 10.0 mi NNW 17.3 mph 27.6 mph N/A   Overcast
11:36 AM 33.8 °F 24.3 °F 26.6 °F 75% 29.83 in 10.0 mi NNW 13.8 mph 24.2 mph N/A   Overcast
11:56 AM 33.8 °F 23.2 °F 26.6 °F 75% 29.84 in 10.0 mi NNW 17.3 mph 26.5 mph N/A   Overcast
12:17 PM 33.8 °F 23.9 °F 26.6 °F 75% 29.86 in 10.0 mi NNW 15.0 mph 24.2 mph N/A   Overcast
12:36 PM 33.8 °F 24.3 °F 26.6 °F 75% 29.87 in 10.0 mi NW 13.8 mph 26.5 mph N/A   Overcast
12:56 PM 33.8 °F 22.5 °F 26.6 °F 75% 29.89 in 10.0 mi NW 19.6 mph 25.3 mph N/A   Overcast
1:16 PM 33.8 °F 22.8 °F 26.6 °F 75% 29.90 in 10.0 mi NW 18.4 mph 24.2 mph N/A   Overcast
1:36 PM 33.8 °F 22.8 °F 26.6 °F 75% 29.91 in 10.0 mi NNW 18.4 mph 24.2 mph N/A   Overcast
1:55 PM 33.8 °F 22.8 °F 26.6 °F 75% 29.92 in 10.0 mi NW 18.4 mph 26.5 mph N/A   Overcast
2:16 PM 33.8 °F 22.8 °F 26.6 °F 75% 29.94 in 10.0 mi NNW 18.4 mph 28.8 mph N/A   Overcast
2:36 PM 33.8 °F 24.8 °F 26.6 °F 75% 29.95 in 10.0 mi NW 12.7 mph 18.4 mph N/A   Overcast
2:56 PM 33.8 °F 23.2 °F 26.6 °F 75% 29.97 in 10.0 mi NW 17.3 mph 25.3 mph N/A   Overcast
3:16 PM 33.8 °F 23.5 °F 26.6 °F 75% 29.98 in 10.0 mi NW 16.1 mph 20.7 mph N/A   Overcast
3:36 PM 33.8 °F 24.3 °F 26.6 °F 75% 29.99 in 10.0 mi NW 13.8 mph 23.0 mph N/A   Overcast
3:56 PM 33.8 °F 24.3 °F 26.6 °F 75% 30.00 in 10.0 mi NW 13.8 mph 20.7 mph N/A   Overcast
4:16 PM 33.8 °F 24.8 °F 26.6 °F 75% 30.02 in 10.0 mi WNW 12.7 mph 18.4 mph N/A   Overcast
4:56 PM 35.6 °F 27.1 °F 28.4 °F 75% 30.04 in 10.0 mi NW 12.7 mph 16.1 mph N/A   Overcast
5:16 PM 35.6 °F 27.5 °F 28.4 °F 75% 30.05 in 10.0 mi NNW 11.5 mph 18.4 mph N/A   Overcast
5:36 PM 35.6 °F 29.2 °F 28.4 °F 75% 30.07 in 10.0 mi NNW 8.1 mph - N/A   Overcast
5:56 PM 35.6 °F 28.0 °F 28.4 °F 75% 30.08 in 10.0 mi NNW 10.4 mph - N/A   Overcast
6:16 PM 35.6 °F 27.5 °F 28.4 °F 75% 30.09 in 10.0 mi NNW 11.5 mph 18.4 mph N/A   Overcast
6:36 PM 35.6 °F 28.6 °F 26.6 °F 70% 30.10 in 10.0 mi NW 9.2 mph - N/A   Overcast
6:56 PM 35.6 °F 29.2 °F 26.6 °F 70% 30.10 in 10.0 mi NNW 8.1 mph - N/A   Mostly Cloudy
7:16 PM 35.6 °F 29.9 °F 24.8 °F 65% 30.11 in 10.0 mi NNW 6.9 mph - N/A   Scattered Clouds
7:36 PM 35.6 °F 29.9 °F 24.8 °F 65% 30.12 in 10.0 mi WNW 6.9 mph - N/A   Scattered Clouds
7:55 PM 33.8 °F - 24.8 °F 70% 30.13 in 10.0 mi Calm Calm - N/A   Clear
8:16 PM 33.8 °F - 24.8 °F 70% 30.14 in 10.0 mi Calm Calm - N/A   Clear
8:35 PM 33.8 °F - 26.6 °F 75% 30.16 in 10.0 mi Calm Calm - N/A   Clear
8:56 PM 32.0 °F - 26.6 °F 80% 30.17 in 10.0 mi Calm Calm - N/A   Clear
9:16 PM 32.0 °F 28.7 °F 26.6 °F 80% 30.17 in 10.0 mi East 3.5 mph - N/A   Scattered Clouds
9:36 PM 32.0 °F - 26.6 °F 80% 30.18 in 10.0 mi Calm Calm - N/A   Mostly Cloudy
9:56 PM 32.0 °F - 26.6 °F 80% 30.19 in 10.0 mi Calm Calm - N/A   Mostly Cloudy
10:16 PM 32.0 °F - 26.6 °F 80% 30.19 in 10.0 mi Calm Calm - N/A   Mostly Cloudy
10:36 PM 32.0 °F - 28.4 °F 87% 30.19 in 10.0 mi Calm Calm - N/A   Overcast
10:56 PM 30.2 °F - 26.6 °F 86% 30.19 in 10.0 mi Calm Calm - N/A   Scattered Clouds
11:16 PM 30.2 °F - 26.6 °F 86% 30.19 in 10.0 mi Calm Calm - N/A   Clear
11:36 PM 30.2 °F - 26.6 °F 86% 30.19 in 10.0 mi Calm Calm - N/A   Clear
11:56 PM 30.2 °F - 26.6 °F 86% 30.20 in 10.0 mi Calm Calm - N/A   Clear